Regional Weather Roundup
Issued by NWS

Home | Current Version | Previous Version | Graphics & Text | Print | Product List | Glossary On
Versions: 1 2 3 4 5 6 7 8 9 10 11 12 13 14 15 16 17 18 19 20 21 22 23 24 25 26 27 28 29 30 31 32 33 34 35 36 37 38 39 40 41 42 43 44 45 46 47 48 49 50
000
ASUS43 KMKX 252059
RWRWI

WISCONSIN REGIONAL WEATHER ROUNDUP
NATIONAL WEATHER SERVICE MILWAUKEE/SULLIVAN WI
300 PM CST SUN JAN 25 2015

NOTE: "FAIR" INDICATES FEW OR NO CLOUDS BELOW 12,000 FEET WITH NO
SIGNIFICANT WEATHER AND/OR OBSTRUCTIONS TO VISIBILITY.

WIZ001-002-006>008-014>016-023>028-252200-
NORTHWEST WISCONSIN

CITY           SKY/WX    TMP DP  RH WIND       PRES   REMARKS
SUPERIOR ARPT  CLOUDY    23  15  71 NE7       30.07F WCI  15
ASHLAND        CLOUDY    20  10  65 N9        30.07F WCI   9
HAYWARD        CLOUDY    22   7  52 CALM      30.02S
SIREN          CLOUDY    26  12  56 CALM      30.04S
CUMBERLAND     CLOUDY    21   9  58 E5        30.02S WCI  15
RICE LAKE      CLOUDY    22  11  61 N3        30.04S
CHETEK         CLOUDY    22  10  59 CALM      30.03R
LADYSMITH      PTSUNNY   22  10  57 CALM      30.03S
EAU CLAIRE     NOT AVBL
MENOMONIE      MOSUNNY   26  11  54 NE5       30.03S WCI  20
NEW RICHMOND   SUNNY     23  10  56 NE3       30.04R
OSCEOLA        SUNNY     27  12  53 E6        30.06S WCI  20
$$

WIZ003>005-009-010-017-018-252200-
NORTH CENTRAL WISCONSIN

CITY           SKY/WX    TMP DP  RH WIND       PRES   REMARKS
MANITOWISH WTR CLOUDY    18   4  56 CALM      29.98F
ARBOR VITAE    CLOUDY    20   7  56 CALM      29.98S
WOODRUFF       CLOUDY    20   7  56 CALM      29.98S
RHINELANDER    CLOUDY    18   5  57 E5        29.99R WCI  11
EAGLE RIVER    MOSUNNY   19   4  52 CALM      29.98R
LAND O LAKES   CLOUDY    19   5  54 CALM      29.99S
PHILLIPS       CLOUDY    19   7  58 CALM      29.99S
TOMAHAWK       CLOUDY    20   6  53 CALM      29.99S
MEDFORD        CLOUDY    20   7  56 CALM      29.99R
MERRILL        MOSUNNY   22   6  49 CALM      29.99S
$$

WIZ029-030-035-036-043>047-252200-
CENTRAL WISCONSIN

CITY           SKY/WX    TMP DP  RH WIND       PRES   REMARKS
WAUSAU         MOSUNNY   21   6  52 NE6       29.99R WCI  13
MOSINEE        NOT AVBL
MARSHFIELD     CLOUDY    21   8  57 E7        30.00R WCI  12
STEVENS POINT  SUNNY     19   6  55 E5        30.01R WCI  12
WAUPACA        MOSUNNY   24   9  53 NE8       30.02S WCI  15
WAUTOMA        MOSUNNY   21  10  63 NE12      30.01R WCI   9
WISC RAPIDS    SUNNY     21   7  54 E10       30.03R WCI  10
CAMP DOUGLAS   NOT AVBL
$$

WIZ011>013-019>022-031-037>040-048>050-252200-
NORTHEAST WISCONSIN

CITY           SKY/WX    TMP DP  RH WIND       PRES   REMARKS
ANTIGO         SUNNY     19   6  58 N6        29.98S WCI  10
SHAWANO        SUNNY     23  10  56 NE8       30.04R WCI  14
OCONTO         MOSUNNY   21   8  57 MISG      30.05S
STURGEON BAY   PTSUNNY   18   9  68 N18       30.05S WCI   2
GREEN BAY      SUNNY     21  11  65 NE18      30.03R WCI   6
MANITOWOC      NOT AVBL
APPLETON       PTSUNNY   21   9  58 NE14G22   30.01R WCI   8
CLINTONVILLE   SUNNY     23   7  50 NE10      30.03R WCI  12
OSHKOSH        CLOUDY    20  11  68 N17       30.00R WCI   5
$$

WIZ032>034-041-042-053>061-252200-
SOUTHWEST WISCONSIN

CITY           SKY/WX    TMP DP  RH WIND       PRES   REMARKS
LA CROSSE      MOSUNNY   28  16  60 E7        30.01R WCI  21
SPARTA         MOSUNNY   26  13  56 NE6       30.02R WCI  19
VIROQUA        SUNNY     26  16  65 N9        29.95R WCI  17
BOSCOBEL       SUNNY     28  14  55 E7G17     29.99R WCI  21
PRAIRIE DU CHI MOSUNNY   30  17  59 N10G17    29.96R WCI  21
PLATTEVILLE    CLOUDY    24  18  77 N16       29.93R WCI  11
$$

WIZ056-057-062-063-064-067-068-252200-
SOUTH CENTRAL WISCONSIN

CITY           SKY/WX    TMP DP  RH WIND       PRES   REMARKS
REEDSBURG      CLOUDY    22  12  65 NE10      29.97S WCI  11
BARABOO/DELLS  MOSUNNY   22  11  65 NE10G18   29.97R WCI  11
LONE ROCK      NOT AVBL
MINERAL POINT  CLOUDY    27  18  69 NE13G20   29.92R WCI  16
MADISON        PTSUNNY   25  14  63 NE14      29.95R WCI  13
MIDDLETON      PTSUNNY   27  16  63 NE17      29.95R WCI  14
WATERTOWN      SUNNY     26  10  48 NE16G22   29.93S WCI  14
MONROE         PTSUNNY   27  19  74 N17G24    29.89R WCI  14
JANESVILLE     PTSUNNY   28  12  50 NE17G23   29.91R WCI  16
$$

WIZ051-052-058>065-066-070>072-252200-
SOUTHEAST WISCONSIN

CITY           SKY/WX    TMP DP  RH WIND       PRES   REMARKS
MILWAUKEE      PTSUNNY   25  14  63 NE20G26   29.94R WCI  11
WAUKESHA       MOSUNNY   23  10  58 NE16G25   29.94R WCI  10
MILWAUKEE/TIMM MOSUNNY   25  12  58 N20       29.95R WCI  11
RACINE         MOSUNNY   25  14  63 NE20G28   29.94R WCI  11
BURLINGTON     CLOUDY    24  13  65 NE14G21   29.92R WCI  11
KENOSHA        CLOUDY    26  16  65 NE22      29.92R WCI  12
FOND DU LAC    SUNNY     22  13  68 N16       29.99R WCI   8
SHEBOYGAN      MOSUNNY   23  11  60 NE22      29.98R WCI   8
WEST BEND      SUNNY     23   9  54 NE15G23   29.95S WCI  10
JUNEAU         SUNNY     24  13  63 N16G24    29.95S WCI  11
$$

LSZ147-162-252200-
LAKE SUPERIOR

STATION/POSITION TIME  TEMP    WIND        PRES    WAVE
                       AIR SEA DIR/SP/G            HT/PER
                 (UTC) (F)     (DEG/KT/KT) (MB)    (FT/S)
DEVILS ISLAND    2000   19      40/ 15/ 17 1020.3R
PORT WING        2040   22      90/  4/  7 1019.0R
SAXON HARBOR     2000   21      30/  7/ 11 1018.3F
$$

LMZ867-665-643>646-252200-
LAKE MICHIGAN

STATION/POSITION TIME  TEMP    WIND        PRES    WAVE
                       AIR SEA DIR/SP/G            HT/PER
                 (UTC) (F)     (DEG/KT/KT) (MB)    (FT/S)
NORTHPORT PIER   2008   18      40/  9/ 14 1018.3S
SISTER BAY       2013   21      30/ 11/ 15   N/A
KEWAUNEE LAKESHO 2000   21      40/ 19/ 23 1015.6F
SHEBOYGAN LAKESH 2000   22      30/ 23/ 26 1016.3F
PORT WASHINGTON  2040   25      40/ 22/ 26 1015.6R
MILWAUKEE LAKESH 2000   24      30/ 21/ 27   N/A
KENOSHA   LAKESH 2000   26      30/ 23/ 28 1012.5R
$$

TC  - TEMPERATURE IN CELSIUS
VSB - VISIBILITY IN STATUTE MILES
WCI - WIND CHILL INDEX
HX  - HEAT INDEX




USA.gov is the U.S. government's official web portal to all federal, state and local government web resources and services.